Flag for Canada Weather past 2 weeks in Happy Valley-Goose Bay, Newfoundland and Labrador, Canada

Now
55 °F

Overcast.


Feels Like: 54 °F
Forecast: 54 / 67 °F
Wind: 6 mph from North

Location: Goose

Current Time: Aug 22, 2014 at 1:20:29 AM

Latest Report: Aug 22, 2014 at 1:00 AM


Visibility: 15 mi

Pressure: 30.25 "Hg

Humidity: 82%

Dew point: 50 °F

Location of Happy Valley-Goose BayLocation

Historic Weather in Happy Valley-Goose Bay — Graph

°F

Happy Valley-Goose Bay temperature yesterday

Maximum temperature yesterday: 64 °F (at 4:00 PM)
Minimum temperature yesterday: 55 °F (at 6:00 AM)
Average temperature yesterday: 59 °F

Past Weeks' High & Low Weather Summary

 TemperatureHumidityPressure
High88 °F (Aug 12, 4:00 PM)88% (Aug 7, 2:00 AM)30.26 "Hg (Aug 7, 2:00 AM)
Low50 °F (Aug 9, 4:00 AM)31% (Aug 13, 3:00 PM)29.79 "Hg (Aug 7, 12:00 AM)
Average65 °F65%30.03 "Hg
* Reported Midnight between Aug 6 and Aug 7 — Midnight between Aug 21 and Aug 22, Happy Valley-Goose Bay, Weather by CustomWeather, © 2014

Note: Actual official high and low records may vary slightly from our data, if they occured in-between our weather recording intervals... More about our weather records

Advertising

Happy Valley-Goose Bay weather history for previous 24 hours

 ConditionsComfort  
Time TempWeatherWind HumidityBarometerVisibility
12:00 AM
Aug 22
57 °FOvercast.6 mph77%30.26 "Hg15 mi
11:00 PM
Aug 21
57 °FOvercast.6 mph77%30.25 "Hg15 mi
10:00 PM57 °FPassing clouds.6 mph77%30.26 "Hg15 mi
9:00 PM59 °FMore clouds than sun.7 mph77%30.25 "Hg15 mi
8:00 PM59 °FBroken clouds.3 mph82%30.25 "Hg15 mi
7:53 PMN/ABroken clouds.5 mphN/AN/A15 mi
7:00 PM59 °FSprinkles. Partly sunny.6 mph82%30.25 "Hg12 mi
6:00 PM61 °FPartly sunny.10 mph77%30.24 "Hg15 mi
5:46 PMN/ABroken clouds.9 mphN/AN/A15 mi
5:00 PM63 °FSprinkles. Partly sunny.14 mph73%30.22 "Hg15 mi
4:00 PM64 °FPartly sunny.12 mph64%30.22 "Hg15 mi
3:00 PM63 °FPartly sunny.9 mph68%30.22 "Hg15 mi
2:00 PM63 °FPartly sunny.9 mph64%30.21 "Hg15 mi
1:00 PM63 °FMostly cloudy.7 mph64%30.21 "Hg15 mi
12:52 PMN/AMostly cloudy.9 mphN/AN/A15 mi
12:00 PM61 °FMostly cloudy.8 mph72%30.22 "Hg15 mi
11:00 AM61 °FMostly cloudy.9 mph72%30.22 "Hg15 mi
10:00 AM59 °FMostly cloudy.9 mph77%30.22 "Hg15 mi
9:00 AM57 °FOvercast.12 mph77%30.21 "Hg15 mi
8:00 AM57 °FMostly cloudy.10 mph77%30.20 "Hg15 mi
7:48 AMN/ADrizzle.9 mphN/AN/A15 mi
7:00 AM55 °FMostly cloudy.7 mph82%30.19 "Hg15 mi
6:00 AM55 °FMostly cloudy.7 mph88%30.18 "Hg15 mi
5:00 AM57 °FDrizzle. Mostly cloudy.8 mph82%30.17 "Hg8 mi
4:00 AM57 °FMostly cloudy.8 mph82%30.15 "Hg15 mi
3:00 AM57 °FMostly cloudy.8 mph82%30.14 "Hg15 mi
2:00 AM57 °FMostly cloudy.8 mph82%30.14 "Hg15 mi
1:00 AM57 °FSprinkles. Mostly cloudy.8 mph82%30.14 "Hg15 mi
Weather by CustomWeather, © 2014

See weather overviewHow to use our weather pages